Location: Truman State University Observatory
(40.1787°N, 92.6006°W)
Time: 19:57:25
(UTC-06:00)

ISS - Visible Passes

Search period start: 23 February 2018 00:00
Search period end: 05 March 2018 00:00
Orbit: 402 x 407 km, 51.6° (Epoch: 24 February)

Date Brightness Start Highest point End Pass type
(mag) Time Alt. Az. Time Alt. Az. Time Alt. Az.
26 Feb -1.4 05:31:58 10° S 05:34:33 22° SE 05:37:10 10° E visible
27 Feb -0.8 04:41:26 10° SSE 04:42:32 11° SE 04:43:39 10° ESE visible
27 Feb -3.9 06:15:19 10° WSW 06:18:35 74° NW 06:21:52 10° NE visible
28 Feb -3.3 05:24:38 24° SSW 05:26:21 55° SE 05:29:35 10° ENE visible
01 Mar -1.7 04:34:55 25° ESE 04:34:55 25° ESE 04:37:04 10° ENE visible
01 Mar -2.9 06:07:36 10° W 06:10:37 34° NNW 06:13:39 10° NE visible
02 Mar -3.7 05:17:43 49° W 05:18:16 59° NW 05:21:31 10° NE visible
03 Mar -1.6 04:27:43 25° ENE 04:27:43 25° ENE 04:29:15 10° ENE visible
03 Mar -2.1 06:00:23 11° WNW 06:02:45 20° NNW 06:05:16 10° NNE visible
04 Mar -2.6 05:10:16 29° NNW 05:10:16 29° NNW 05:13:11 10° NE visible
